TimeCST,TemperatureF,Dew PointF,Humidity,Sea Level PressureIn,VisibilityMPH,Wind Direction,Wind SpeedMPH,Gust SpeedMPH,PrecipitationIn,Events,Conditions,WindDirDegrees,DateUTC
12:07 AM,59.0,53.6,82,30.06,10.0,Variable,3.5,-,N/A,,Overcast,0,2012-12-07 06:07:00
12:53 AM,59.0,54.0,83,30.03,10.0,ESE,6.9,-,N/A,,Overcast,110,2012-12-07 06:53:00
1:53 AM,59.0,54.0,83,30.03,9.0,ESE,4.6,-,N/A,,Overcast,110,2012-12-07 07:53:00
2:53 AM,59.0,54.0,83,30.02,9.0,Calm,Calm,-,N/A,,Overcast,0,2012-12-07 08:53:00
3:53 AM,59.0,55.0,87,30.03,9.0,Calm,Calm,-,N/A,,Overcast,0,2012-12-07 09:53:00
4:53 AM,59.0,54.0,83,30.02,7.0,East,3.5,-,N/A,,Overcast,100,2012-12-07 10:53:00
5:05 AM,59.0,53.6,82,30.04,7.0,Calm,Calm,-,N/A,,Overcast,0,2012-12-07 11:05:00
5:53 AM,57.9,54.0,87,30.04,7.0,East,4.6,-,N/A,,Overcast,100,2012-12-07 11:53:00
6:53 AM,57.9,54.0,87,30.04,6.0,East,6.9,-,N/A,,Overcast,100,2012-12-07 12:53:00
7:53 AM,57.9,54.0,87,30.05,5.0,ESE,5.8,-,N/A,,Overcast,120,2012-12-07 13:53:00
8:53 AM,57.9,55.0,90,30.05,6.0,ESE,5.8,-,N/A,,Overcast,120,2012-12-07 14:53:00
9:53 AM,59.0,54.0,83,30.05,8.0,Variable,4.6,-,N/A,,Overcast,0,2012-12-07 15:53:00
10:18 AM,60.8,53.6,77,30.05,9.0,SE,3.5,-,N/A,,Overcast,140,2012-12-07 16:18:00
10:53 AM,61.0,55.0,81,30.03,10.0,ESE,3.5,-,N/A,,Overcast,110,2012-12-07 16:53:00
11:15 AM,62.6,55.4,77,30.02,10.0,SE,5.8,-,N/A,,Overcast,140,2012-12-07 17:15:00
11:53 AM,64.0,55.0,73,29.99,10.0,South,4.6,-,N/A,,Overcast,170,2012-12-07 17:53:00
12:28 PM,66.2,55.4,68,29.98,10.0,Variable,5.8,-,N/A,,Mostly Cloudy,0,2012-12-07 18:28:00
12:39 PM,66.2,55.4,68,29.98,10.0,South,4.6,-,N/A,,Overcast,170,2012-12-07 18:39:00
1:03 PM,66.2,55.4,68,29.97,10.0,Variable,4.6,-,N/A,,Overcast,0,2012-12-07 19:03:00
1:26 PM,66.2,55.4,68,29.97,10.0,Variable,4.6,-,N/A,,Overcast,0,2012-12-07 19:26:00
1:53 PM,66.0,55.9,70,29.96,10.0,SSW,4.6,-,N/A,,Overcast,210,2012-12-07 19:53:00
2:53 PM,66.9,55.9,68,29.95,10.0,South,4.6,-,N/A,,Overcast,180,2012-12-07 20:53:00
3:53 PM,66.0,55.9,70,29.95,10.0,South,3.5,-,N/A,,Mostly Cloudy,170,2012-12-07 21:53:00
4:53 PM,64.0,55.9,75,29.95,10.0,Calm,Calm,-,N/A,,Mostly Cloudy,0,2012-12-07 22:53:00
5:08 PM,64.4,55.4,73,29.96,10.0,SSE,4.6,-,N/A,,Overcast,160,2012-12-07 23:08:00
5:53 PM,64.0,55.9,75,29.96,10.0,Calm,Calm,-,N/A,,Partly Cloudy,0,2012-12-07 23:53:00
7:53 PM,60.1,55.9,86,29.98,9.0,SE,3.5,-,N/A,,Clear,140,2012-12-08 01:53:00
8:53 PM,59.0,55.0,87,29.98,8.0,Calm,Calm,-,N/A,,Mostly Cloudy,0,2012-12-08 02:53:00
9:53 PM,59.0,55.9,90,29.99,8.0,Calm,Calm,-,N/A,,Overcast,0,2012-12-08 03:53:00
10:53 PM,55.9,54.0,93,29.99,6.0,Calm,Calm,-,N/A,,Scattered Clouds,0,2012-12-08 04:53:00
11:53 PM,57.9,55.0,90,29.98,7.0,Calm,Calm,-,N/A,,Overcast,0,2012-12-08 05:53:00